Check out our new BloomSky Weather System.

Active alerts


No alerts


Thunder radar  blitzortung!


Rain radar more information rain snow radar


Visit our other weather sites:

Template documentation
and downloads

And another site



Weather Underground History page Text

Daily Summary for February 19, 2017 Units:  Metric    English   Both
« Previous Day
Next Day »
Daily Weekly Monthly Yearly Custom
  High: Low: Average:
Temperature: 26.8 °C 20.3 °C 22.3 °C
Dew Point: 21.8 °C 19.6 °C 20.8 °C
Humidity: 98 % 72 % 92 %
Wind Speed: 30.6 km/h 0 km/h 7.2 km/h
Wind Gust: 30.6 km/h - -
Wind:- - ESE
Pressure: 1013.8 hPa 1010 hPa -
Precipitation: 0 mm    
Historical Graphs
 
 
Tabular Data for February 19, 2017
Time Temperature Dew Point Pressure Wind Wind Speed Wind Gust Humidity Rainfall Rate (Hourly)
00:04 20.4 °C 19.6 °C 1011.1 hPa SSE 4.8 km/h 8 km/h 95 % 0 mm
00:09 20.4 °C 19.6 °C 1011.4 hPa SE 3.2 km/h 9.7 km/h 95 % 0 mm
00:14 20.4 °C 19.6 °C 1011.4 hPa East 3.2 km/h 9.7 km/h 95 % 0 mm
00:19 20.5 °C 19.7 °C 1011.4 hPa SE 3.2 km/h 9.7 km/h 95 % 0 mm
00:24 20.5 °C 19.7 °C 1011.4 hPa ESE 3.2 km/h 9.7 km/h 95 % 0 mm
00:29 20.4 °C 19.6 °C 1011.4 hPa East 1.6 km/h 9.7 km/h 95 % 0 mm
00:34 20.4 °C 19.7 °C 1011.4 hPa SE 1.6 km/h 9.7 km/h 96 % 0 mm
00:39 20.4 °C 19.7 °C 1011.4 hPa East 1.6 km/h 6.4 km/h 96 % 0 mm
00:54 20.3 °C 19.6 °C 1011.4 hPa Calm   4.8 km/h 96 % 0 mm
00:59 20.3 °C 19.6 °C 1011.4 hPa Calm   4.8 km/h 96 % 0 mm
01:05 20.4 °C 19.7 °C 1011.4 hPa SE 4.8 km/h 4.8 km/h 96 % 0 mm
01:10 20.3 °C 19.6 °C 1011.4 hPa Calm   6.4 km/h 96 % 0 mm
01:15 20.3 °C 19.6 °C 1011.1 hPa Calm   6.4 km/h 96 % 0 mm
01:20 20.4 °C 19.9 °C 1011.1 hPa ESE 3.2 km/h 6.4 km/h 97 % 0 mm
01:25 20.4 °C 19.9 °C 1011.1 hPa ESE 3.2 km/h 4.8 km/h 97 % 0 mm
01:30 20.4 °C 19.9 °C 1011.1 hPa ESE 3.2 km/h 6.4 km/h 97 % 0 mm
01:35 20.4 °C 19.9 °C 1011.1 hPa SE 1.6 km/h 6.4 km/h 97 % 0 mm
01:40 20.5 °C 20 °C 1011.1 hPa ESE 1.6 km/h 4.8 km/h 97 % 0 mm
01:45 20.6 °C 20.1 °C 1011.1 hPa ESE 4.8 km/h 6.4 km/h 97 % 0 mm
01:50 20.6 °C 20.1 °C 1011.1 hPa East 3.2 km/h 6.4 km/h 97 % 0 mm
01:55 20.6 °C 20.1 °C 1011.1 hPa SSE 1.6 km/h 6.4 km/h 97 % 0 mm
02:00 20.6 °C 20.1 °C 1011.1 hPa Calm   6.4 km/h 97 % 0 mm
02:05 20.6 °C 20.1 °C 1011.1 hPa SSE 1.6 km/h 6.4 km/h 97 % 0 mm
02:10 20.5 °C 20 °C 1011.1 hPa Calm   6.4 km/h 97 % 0 mm
02:15 20.6 °C 20.1 °C 1011.1 hPa Calm   6.4 km/h 97 % 0 mm
02:20 20.5 °C 20 °C 1011.1 hPa Calm   6.4 km/h 97 % 0 mm
02:25 20.6 °C 20.1 °C 1011.1 hPa Calm   6.4 km/h 97 % 0 mm
02:30 20.6 °C 20.1 °C 1011.1 hPa Calm   4.8 km/h 97 % 0 mm
02:35 20.6 °C 20.1 °C 1011.1 hPa SE 3.2 km/h 4.8 km/h 97 % 0 mm
02:40 20.6 °C 20.1 °C 1011.1 hPa ESE 6.4 km/h 6.4 km/h 97 % 0 mm
02:45 20.6 °C 20.1 °C 1011.1 hPa East 3.2 km/h 8 km/h 97 % 0 mm
02:50 20.6 °C 20.1 °C 1011.1 hPa ENE 3.2 km/h 8 km/h 97 % 0 mm
02:55 20.6 °C 20.1 °C 1011.1 hPa ESE 1.6 km/h 8 km/h 97 % 0 mm
03:01 20.7 °C 20.2 °C 1011.1 hPa SE 1.6 km/h 8 km/h 97 % 0 mm
03:06 20.7 °C 20.2 °C 1011.1 hPa East 1.6 km/h 8 km/h 97 % 0 mm
03:11 20.7 °C 20.2 °C 1011.1 hPa ESE 3.2 km/h 8 km/h 97 % 0 mm
03:16 20.7 °C 20.2 °C 1011.1 hPa Calm   6.4 km/h 97 % 0 mm
03:21 20.7 °C 20.2 °C 1011.1 hPa ESE 4.8 km/h 6.4 km/h 97 % 0 mm
03:26 20.7 °C 20.2 °C 1011.1 hPa ESE 3.2 km/h 6.4 km/h 97 % 0 mm
03:31 20.8 °C 20.3 °C 1011.1 hPa Calm   6.4 km/h 97 % 0 mm
03:36 20.8 °C 20.3 °C 1010.7 hPa East 1.6 km/h 6.4 km/h 97 % 0 mm
03:41 20.7 °C 20.2 °C 1010.7 hPa SE 1.6 km/h 6.4 km/h 97 % 0 mm
03:46 20.7 °C 20.2 °C 1010.7 hPa SE 1.6 km/h 6.4 km/h 97 % 0 mm
03:51 20.6 °C 20.3 °C 1010.7 hPa Calm   6.4 km/h 98 % 0 mm
03:56 20.6 °C 20.3 °C 1010.7 hPa ENE 4.8 km/h 8 km/h 98 % 0 mm
04:01 20.6 °C 20.3 °C 1010.7 hPa ESE 3.2 km/h 9.7 km/h 98 % 0 mm
04:06 20.6 °C 20.3 °C 1010.7 hPa East 1.6 km/h 9.7 km/h 98 % 0 mm
04:11 20.6 °C 20.3 °C 1010.7 hPa SE 1.6 km/h 9.7 km/h 98 % 0 mm
04:16 20.6 °C 20.3 °C 1010.7 hPa East 4.8 km/h 8 km/h 98 % 0 mm
04:21 20.7 °C 20.4 °C 1010.7 hPa East 6.4 km/h 11.3 km/h 98 % 0 mm
04:26 20.7 °C 20.4 °C 1010.7 hPa ESE 1.6 km/h 11.3 km/h 98 % 0 mm
04:31 20.7 °C 20.4 °C 1010.7 hPa Calm   11.3 km/h 98 % 0 mm
04:36 20.7 °C 20.4 °C 1010.7 hPa SSE 1.6 km/h 11.3 km/h 98 % 0 mm
04:41 20.7 °C 20.4 °C 1010.7 hPa ESE 6.4 km/h 11.3 km/h 98 % 0 mm
04:46 20.7 °C 20.4 °C 1011.1 hPa SE 1.6 km/h 11.3 km/h 98 % 0 mm
04:51 20.8 °C 20.5 °C 1011.1 hPa SE 3.2 km/h 11.3 km/h 98 % 0 mm
04:56 20.8 °C 20.5 °C 1011.1 hPa East 6.4 km/h 11.3 km/h 98 % 0 mm
04:57 20.8 °C 20.5 °C 1011.1 hPa East 6.4 km/h 11.3 km/h 98 % 0 mm
05:02 20.8 °C 20.5 °C 1011.1 hPa SE 3.2 km/h 11.3 km/h 98 % 0 mm
05:07 20.8 °C 20.5 °C 1011.1 hPa East 6.4 km/h 12.9 km/h 98 % 0 mm
05:12 20.8 °C 20.5 °C 1011.1 hPa SE 6.4 km/h 12.9 km/h 98 % 0 mm
05:17 20.8 °C 20.5 °C 1011.1 hPa East 6.4 km/h 12.9 km/h 98 % 0 mm
05:22 20.8 °C 20.5 °C 1011.1 hPa South 4.8 km/h 9.7 km/h 98 % 0 mm
05:27 20.9 °C 20.6 °C 1011.4 hPa ESE 4.8 km/h 9.7 km/h 98 % 0 mm
05:32 20.9 °C 20.6 °C 1011.4 hPa Calm   9.7 km/h 98 % 0 mm
05:37 20.9 °C 20.6 °C 1011.7 hPa SE 3.2 km/h 8 km/h 98 % 0 mm
05:42 20.9 °C 20.6 °C 1011.7 hPa SSE 1.6 km/h 8 km/h 98 % 0 mm
05:47 20.9 °C 20.6 °C 1012.1 hPa ESE 4.8 km/h 6.4 km/h 98 % 0 mm
05:52 20.9 °C 20.6 °C 1012.1 hPa ESE 1.6 km/h 6.4 km/h 98 % 0 mm
05:57 20.9 °C 20.6 °C 1012.1 hPa ESE 1.6 km/h 6.4 km/h 98 % 0 mm
06:02 20.9 °C 20.6 °C 1012.1 hPa East 1.6 km/h 6.4 km/h 98 % 0 mm
06:03 20.9 °C 20.6 °C 1012.1 hPa ESE 3.2 km/h 6.4 km/h 98 % 0 mm
06:08 20.9 °C 20.6 °C 1012.1 hPa SE 4.8 km/h 6.4 km/h 98 % 0 mm
06:13 20.9 °C 20.6 °C 1012.1 hPa SE 1.6 km/h 9.7 km/h 98 % 0 mm
06:18 20.9 °C 20.6 °C 1012.1 hPa SE 6.4 km/h 9.7 km/h 98 % 0 mm
06:23 21 °C 20.7 °C 1012.1 hPa ESE 3.2 km/h 9.7 km/h 98 % 0 mm
06:28 21 °C 20.7 °C 1012.1 hPa ESE 9.7 km/h 9.7 km/h 98 % 0 mm
06:33 21 °C 20.7 °C 1012.1 hPa SE 1.6 km/h 9.7 km/h 98 % 0 mm
06:38 21 °C 20.7 °C 1012.4 hPa ESE 4.8 km/h 9.7 km/h 98 % 0 mm
06:43 21 °C 20.7 °C 1012.4 hPa ESE 1.6 km/h 12.9 km/h 98 % 0 mm
06:48 21 °C 20.7 °C 1012.4 hPa East 3.2 km/h 12.9 km/h 98 % 0 mm
06:54 21.1 °C 20.8 °C 1012.4 hPa ESE 1.6 km/h 12.9 km/h 98 % 0 mm
06:59 21.1 °C 20.8 °C 1012.4 hPa ESE 6.4 km/h 9.7 km/h 98 % 0 mm
07:04 21.1 °C 20.8 °C 1012.4 hPa ESE 1.6 km/h 9.7 km/h 98 % 0 mm
07:09 21.1 °C 20.8 °C 1012.8 hPa ESE 1.6 km/h 9.7 km/h 98 % 0 mm
07:14 21.1 °C 20.8 °C 1012.8 hPa ENE 3.2 km/h 9.7 km/h 98 % 0 mm
07:19 21.1 °C 20.8 °C 1012.8 hPa ENE 3.2 km/h 9.7 km/h 98 % 0 mm
07:24 21.1 °C 20.8 °C 1012.4 hPa SE 3.2 km/h 11.3 km/h 98 % 0 mm
07:29 21.1 °C 20.8 °C 1012.4 hPa East 8 km/h 11.3 km/h 98 % 0 mm
07:39 21.2 °C 20.9 °C 1012.4 hPa ESE 3.2 km/h 11.3 km/h 98 % 0 mm
07:44 21.2 °C 20.9 °C 1012.8 hPa East 4.8 km/h 11.3 km/h 98 % 0 mm
07:49 21.3 °C 21 °C 1012.8 hPa East 6.4 km/h 11.3 km/h 98 % 0 mm
07:54 21.3 °C 20.8 °C 1012.8 hPa SE 8 km/h 11.3 km/h 97 % 0 mm
07:59 21.3 °C 20.8 °C 1012.8 hPa East 8 km/h 12.9 km/h 97 % 0 mm
08:04 21.3 °C 20.8 °C 1012.8 hPa ESE 3.2 km/h 12.9 km/h 97 % 0 mm
08:09 21.4 °C 20.9 °C 1012.8 hPa ESE 8 km/h 12.9 km/h 97 % 0 mm
08:19 21.6 °C 21.1 °C 1013.1 hPa SE 4.8 km/h 12.9 km/h 97 % 0 mm
08:24 21.6 °C 21.1 °C 1013.4 hPa East 4.8 km/h 12.9 km/h 97 % 0 mm
08:29 21.7 °C 21.2 °C 1013.4 hPa SE 4.8 km/h 11.3 km/h 97 % 0 mm
08:34 21.7 °C 21.2 °C 1013.4 hPa ESE 3.2 km/h 8 km/h 97 % 0 mm
08:39 21.8 °C 21.3 °C 1013.4 hPa ESE 4.8 km/h 9.7 km/h 97 % 0 mm
08:44 21.9 °C 21.2 °C 1013.4 hPa SE 6.4 km/h 9.7 km/h 96 % 0 mm
08:49 21.9 °C 21.2 °C 1013.4 hPa East 4.8 km/h 12.9 km/h 96 % 0 mm
08:54 22.1 °C 21.4 °C 1013.4 hPa ESE 4.8 km/h 14.5 km/h 96 % 0 mm
08:59 22.1 °C 21.3 °C 1013.8 hPa ESE 8 km/h 14.5 km/h 95 % 0 mm
09:04 22.1 °C 21.3 °C 1013.8 hPa SE 14.5 km/h 14.5 km/h 95 % 0 mm
09:10 22.2 °C 21.4 °C 1013.8 hPa SE 8 km/h 22.5 km/h 95 % 0 mm
09:15 22.3 °C 21.3 °C 1013.8 hPa SSE 8 km/h 22.5 km/h 94 % 0 mm
09:20 22.3 °C 21.3 °C 1013.8 hPa SE 4.8 km/h 22.5 km/h 94 % 0 mm
09:25 22.4 °C 21.2 °C 1013.8 hPa ESE 14.5 km/h 19.3 km/h 93 % 0 mm
09:30 22.4 °C 21.2 °C 1013.8 hPa SE 14.5 km/h 19.3 km/h 93 % 0 mm
09:35 22.4 °C 21.2 °C 1013.8 hPa ESE 11.3 km/h 19.3 km/h 93 % 0 mm
09:40 22.6 °C 21.2 °C 1013.8 hPa ESE 12.9 km/h 19.3 km/h 92 % 0 mm
09:45 22.6 °C 21.2 °C 1013.8 hPa SSE 4.8 km/h 19.3 km/h 92 % 0 mm
09:50 22.7 °C 21.5 °C 1013.8 hPa ESE 4.8 km/h 19.3 km/h 93 % 0 mm
09:55 22.7 °C 21.3 °C 1013.8 hPa SE 3.2 km/h 19.3 km/h 92 % 0 mm
10:00 22.7 °C 21.3 °C 1013.8 hPa SE 8 km/h 16.1 km/h 92 % 0 mm
10:05 22.7 °C 21.3 °C 1013.8 hPa SSE 3.2 km/h 16.1 km/h 92 % 0 mm
10:10 22.7 °C 21.3 °C 1013.8 hPa SE 8 km/h 17.7 km/h 92 % 0 mm
10:15 22.8 °C 21.4 °C 1013.8 hPa SE 6.4 km/h 17.7 km/h 92 % 0 mm
10:20 22.8 °C 21.4 °C 1013.8 hPa East 8 km/h 17.7 km/h 92 % 0 mm
10:25 22.9 °C 21.4 °C 1013.8 hPa SE 6.4 km/h 17.7 km/h 91 % 0 mm
10:30 22.9 °C 21.4 °C 1013.8 hPa ESE 16.1 km/h 19.3 km/h 91 % 0 mm
10:35 22.9 °C 21.4 °C 1013.8 hPa ESE 4.8 km/h 25.7 km/h 91 % 0 mm
10:40 22.9 °C 21.4 °C 1013.8 hPa SE 6.4 km/h 25.7 km/h 91 % 0 mm
10:45 22.9 °C 21.4 °C 1013.8 hPa East 12.9 km/h 25.7 km/h 91 % 0 mm
10:50 22.8 °C 21.3 °C 1013.8 hPa SE 11.3 km/h 20.9 km/h 91 % 0 mm
10:55 22.8 °C 21.3 °C 1013.8 hPa SE 9.7 km/h 25.7 km/h 91 % 0 mm
11:01 22.9 °C 21.4 °C 1013.8 hPa East 12.9 km/h 25.7 km/h 91 % 0 mm
11:06 22.9 °C 21.2 °C 1013.8 hPa SE 16.1 km/h 25.7 km/h 90 % 0 mm
11:11 22.8 °C 21.3 °C 1013.4 hPa SSE 11.3 km/h 25.7 km/h 91 % 0 mm
11:16 22.8 °C 21.3 °C 1013.8 hPa ESE 14.5 km/h 25.7 km/h 91 % 0 mm
11:21 22.8 °C 21.3 °C 1013.8 hPa SE 9.7 km/h 25.7 km/h 91 % 0 mm
11:26 22.7 °C 21.2 °C 1013.4 hPa South 11.3 km/h 25.7 km/h 91 % 0 mm
11:31 22.8 °C 21.3 °C 1013.4 hPa SE 9.7 km/h 25.7 km/h 91 % 0 mm
11:36 22.8 °C 21.3 °C 1013.4 hPa East 12.9 km/h 25.7 km/h 91 % 0 mm
11:41 22.9 °C 21.4 °C 1013.1 hPa SE 12.9 km/h 25.7 km/h 91 % 0 mm
11:46 22.8 °C 21.3 °C 1013.1 hPa South 6.4 km/h 25.7 km/h 91 % 0 mm
11:51 22.8 °C 21.3 °C 1013.1 hPa East 22.5 km/h 25.7 km/h 91 % 0 mm
11:56 22.7 °C 21.2 °C 1013.1 hPa SE 19.3 km/h 25.7 km/h 91 % 0 mm
12:01 22.7 °C 21.2 °C 1013.1 hPa ESE 19.3 km/h 22.5 km/h 91 % 0 mm
12:06 22.7 °C 21.3 °C 1013.1 hPa East 12.9 km/h 24.1 km/h 92 % 0 mm
12:11 22.8 °C 21.4 °C 1013.1 hPa SE 8 km/h 24.1 km/h 92 % 0 mm
12:16 23.1 °C 21.5 °C 1013.1 hPa ESE 9.7 km/h 24.1 km/h 91 % 0 mm
12:21 23.3 °C 21.6 °C 1012.8 hPa SSE 24.1 km/h 25.7 km/h 90 % 0 mm
12:26 23.4 °C 21.5 °C 1012.8 hPa SSE 14.5 km/h 25.7 km/h 89 % 0 mm
12:31 23.7 °C 21.8 °C 1012.8 hPa ESE 20.9 km/h 25.7 km/h 89 % 0 mm
12:36 23.8 °C 21.5 °C 1012.4 hPa ESE 11.3 km/h 25.7 km/h 87 % 0 mm
12:41 23.8 °C 21.5 °C 1012.4 hPa ESE 8 km/h 20.9 km/h 87 % 0 mm
12:47 24 °C 21.7 °C 1012.4 hPa SE 11.3 km/h 20.9 km/h 87 % 0 mm
12:52 23.9 °C 21.2 °C 1012.4 hPa SE 30.6 km/h 30.6 km/h 85 % 0 mm
12:57 23.9 °C 21.2 °C 1012.4 hPa SSE 9.7 km/h 30.6 km/h 85 % 0 mm
13:02 24 °C 21.1 °C 1012.1 hPa ESE 9.7 km/h 30.6 km/h 84 % 0 mm
13:07 24.2 °C 21.3 °C 1012.1 hPa SE 12.9 km/h 30.6 km/h 84 % 0 mm
13:12 24.4 °C 21.3 °C 1012.1 hPa ESE 17.7 km/h 27.4 km/h 83 % 0 mm
13:17 24.4 °C 21.3 °C 1012.1 hPa East 17.7 km/h 24.1 km/h 83 % 0 mm
13:22 24.6 °C 21.5 °C 1012.1 hPa East 12.9 km/h 24.1 km/h 83 % 0 mm
13:27 24.7 °C 21.4 °C 1011.7 hPa ESE 6.4 km/h 24.1 km/h 82 % 0 mm
13:32 24.7 °C 21.2 °C 1011.7 hPa SE 9.7 km/h 22.5 km/h 81 % 0 mm
13:37 24.6 °C 21.3 °C 1011.7 hPa ESE 6.4 km/h 22.5 km/h 82 % 0 mm
13:42 24.6 °C 21.3 °C 1011.7 hPa SE 12.9 km/h 22.5 km/h 82 % 0 mm
13:47 24.7 °C 21.4 °C 1011.7 hPa East 8 km/h 24.1 km/h 82 % 0 mm
13:52 24.7 °C 21.6 °C 1011.4 hPa SE 3.2 km/h 24.1 km/h 83 % 0 mm
13:57 24.9 °C 21.6 °C 1011.4 hPa ESE 4.8 km/h 24.1 km/h 82 % 0 mm
14:02 25 °C 21.3 °C 1011.4 hPa SSE 6.4 km/h 22.5 km/h 80 % 0 mm
14:07 25.4 °C 21.7 °C 1011.4 hPa ESE 11.3 km/h 22.5 km/h 80 % 0 mm
14:12 25.6 °C 21.7 °C 1011.1 hPa SE 17.7 km/h 22.5 km/h 79 % 0 mm
14:17 25.7 °C 21.6 °C 1011.1 hPa SSE 12.9 km/h 22.5 km/h 78 % 0 mm
14:22 25.7 °C 21.6 °C 1011.1 hPa SSE 12.9 km/h 22.5 km/h 78 % 0 mm
14:27 25.8 °C 21.5 °C 1011.1 hPa SE 11.3 km/h 22.5 km/h 77 % 0 mm
14:32 25.9 °C 21.1 °C 1011.1 hPa SE 8 km/h 20.9 km/h 75 % 0 mm
14:37 26.1 °C 21.3 °C 1010.7 hPa East 11.3 km/h 22.5 km/h 75 % 0 mm
14:42 26.1 °C 21.3 °C 1010.7 hPa SE 19.3 km/h 22.5 km/h 75 % 0 mm
14:47 26.2 °C 21 °C 1010.7 hPa SE 11.3 km/h 22.5 km/h 73 % 0 mm
14:52 26.1 °C 21.3 °C 1010.4 hPa ESE 16.1 km/h 25.7 km/h 75 % 0 mm
14:57 26.1 °C 21.3 °C 1010.4 hPa ENE 12.9 km/h 25.7 km/h 75 % 0 mm
15:02 26.2 °C 21.4 °C 1010.4 hPa East 12.9 km/h 25.7 km/h 75 % 0 mm
15:07 26.3 °C 21.3 °C 1010.4 hPa SE 12.9 km/h 24.1 km/h 74 % 0 mm
15:12 26.4 °C 21.4 °C 1010.4 hPa South 6.4 km/h 24.1 km/h 74 % 0 mm
15:17 26.6 °C 21.4 °C 1010.4 hPa East 9.7 km/h 24.1 km/h 73 % 0 mm
15:22 26.8 °C 21.3 °C 1010.4 hPa ESE 12.9 km/h 19.3 km/h 72 % 0 mm
15:27 26.8 °C 21.3 °C 1010.4 hPa SE 8 km/h 17.7 km/h 72 % 0 mm
15:32 26.8 °C 21.3 °C 1010.4 hPa SE 8 km/h 19.3 km/h 72 % 0 mm
15:37 26.7 °C 21.2 °C 1010.4 hPa East 11.3 km/h 24.1 km/h 72 % 0 mm
15:47 26.4 °C 20.9 °C 1010.4 hPa ESE 12.9 km/h 24.1 km/h 72 % 0 mm
15:52 26.3 °C 20.8 °C 1010.7 hPa East 9.7 km/h 24.1 km/h 72 % 0 mm
15:57 26.2 °C 20.7 °C 1010.7 hPa SE 12.9 km/h 24.1 km/h 72 % 0 mm
16:02 26.2 °C 20.7 °C 1010.7 hPa South 11.3 km/h 24.1 km/h 72 % 0 mm
16:07 26 °C 20.6 °C 1010.7 hPa SE 11.3 km/h 20.9 km/h 72 % 0 mm
16:12 25.8 °C 20.8 °C 1011.1 hPa ESE 11.3 km/h 19.3 km/h 74 % 0 mm
16:17 25.7 °C 20.9 °C 1011.1 hPa SE 9.7 km/h 19.3 km/h 75 % 0 mm
16:22 25.6 °C 20.8 °C 1011.1 hPa East 8 km/h 16.1 km/h 75 % 0 mm
16:27 25.5 °C 21 °C 1011.1 hPa SE 6.4 km/h 17.7 km/h 76 % 0 mm
16:37 25.3 °C 20.8 °C 1011.1 hPa ESE 4.8 km/h 17.7 km/h 76 % 0 mm
16:42 25.2 °C 20.9 °C 1011.1 hPa ESE 16.1 km/h 16.1 km/h 77 % 0 mm
16:47 25.1 °C 21 °C 1010.7 hPa ESE 4.8 km/h 20.9 km/h 78 % 0 mm
16:52 25 °C 20.9 °C 1010.4 hPa ESE 6.4 km/h 20.9 km/h 78 % 0 mm
16:57 24.8 °C 20.9 °C 1010.4 hPa SE 9.7 km/h 20.9 km/h 79 % 0 mm
17:02 24.6 °C 20.9 °C 1010.4 hPa ESE 12.9 km/h 19.3 km/h 80 % 0 mm
17:07 24.4 °C 20.9 °C 1010.4 hPa SSE 4.8 km/h 19.3 km/h 81 % 0 mm
17:12 24.2 °C 20.9 °C 1010.4 hPa SSE 11.3 km/h 20.9 km/h 82 % 0 mm
17:17 24.1 °C 20.8 °C 1010 hPa ESE 9.7 km/h 20.9 km/h 82 % 0 mm
17:22 23.9 °C 20.8 °C 1010 hPa ESE 9.7 km/h 24.1 km/h 83 % 0 mm
17:27 23.8 °C 20.9 °C 1010.4 hPa SE 4.8 km/h 25.7 km/h 84 % 0 mm
17:32 23.8 °C 20.9 °C 1010 hPa ENE 11.3 km/h 25.7 km/h 84 % 0 mm
17:37 23.6 °C 20.9 °C 1010.4 hPa SE 8 km/h 25.7 km/h 85 % 0 mm
17:42 23.4 °C 20.9 °C 1010.4 hPa East 4.8 km/h 20.9 km/h 86 % 0 mm
17:47 23.3 °C 20.8 °C 1010.4 hPa SE 9.7 km/h 20.9 km/h 86 % 0 mm
17:52 23.2 °C 20.9 °C 1010 hPa SE 11.3 km/h 20.9 km/h 87 % 0 mm
17:57 23.1 °C 20.8 °C 1010.4 hPa SSE 11.3 km/h 20.9 km/h 87 % 0 mm
18:02 23.1 °C 21 °C 1010 hPa ESE 6.4 km/h 20.9 km/h 88 % 0 mm
18:07 22.9 °C 20.8 °C 1010.7 hPa SE 11.3 km/h 20.9 km/h 88 % 0 mm
18:12 22.8 °C 20.7 °C 1011.1 hPa SE 11.3 km/h 24.1 km/h 88 % 0 mm
18:17 22.8 °C 20.9 °C 1011.1 hPa East 16.1 km/h 24.1 km/h 89 % 0 mm
18:22 22.7 °C 20.8 °C 1010.7 hPa ESE 6.4 km/h 24.1 km/h 89 % 0 mm
18:27 22.7 °C 20.8 °C 1011.1 hPa SSW 11.3 km/h 20.9 km/h 89 % 0 mm
18:32 22.7 °C 20.8 °C 1011.4 hPa SE 6.4 km/h 17.7 km/h 89 % 0 mm
18:37 22.7 °C 20.6 °C 1011.4 hPa ESE 17.7 km/h 17.7 km/h 88 % 0 mm
18:42 22.7 °C 20.6 °C 1011.4 hPa ESE 9.7 km/h 22.5 km/h 88 % 0 mm
18:47 22.7 °C 20.6 °C 1011.7 hPa SSE 6.4 km/h 22.5 km/h 88 % 0 mm
18:52 22.7 °C 20.8 °C 1011.7 hPa SE 8 km/h 22.5 km/h 89 % 0 mm
18:57 22.7 °C 20.8 °C 1011.4 hPa East 12.9 km/h 22.5 km/h 89 % 0 mm
19:02 22.6 °C 20.7 °C 1011.4 hPa ESE 4.8 km/h 22.5 km/h 89 % 0 mm
19:07 22.6 °C 20.7 °C 1011.7 hPa SE 1.6 km/h 22.5 km/h 89 % 0 mm
19:12 22.6 °C 20.7 °C 1011.7 hPa East 8 km/h 19.3 km/h 89 % 0 mm
19:17 22.5 °C 20.8 °C 1011.7 hPa South 4.8 km/h 19.3 km/h 90 % 0 mm
19:22 22.5 °C 20.8 °C 1011.7 hPa ESE 8 km/h 16.1 km/h 90 % 0 mm
19:27 22.4 °C 20.7 °C 1011.7 hPa ESE 6.4 km/h 19.3 km/h 90 % 0 mm
19:32 22.4 °C 20.9 °C 1011.7 hPa SE 8 km/h 19.3 km/h 91 % 0 mm
19:37 22.4 °C 20.9 °C 1011.7 hPa East 11.3 km/h 19.3 km/h 91 % 0 mm
19:42 22.4 °C 20.9 °C 1011.7 hPa South 11.3 km/h 17.7 km/h 91 % 0 mm
19:47 22.4 °C 20.9 °C 1011.7 hPa NE 4.8 km/h 20.9 km/h 91 % 0 mm
19:52 22.3 °C 20.9 °C 1011.7 hPa East 12.9 km/h 20.9 km/h 92 % 0 mm
19:57 22.3 °C 20.9 °C 1011.7 hPa SE 3.2 km/h 20.9 km/h 92 % 0 mm
20:02 22.3 °C 20.9 °C 1011.7 hPa East 9.7 km/h 14.5 km/h 92 % 0 mm
20:07 22.2 °C 20.8 °C 1011.7 hPa SSE 9.7 km/h 17.7 km/h 92 % 0 mm
20:12 22.2 °C 21 °C 1011.4 hPa ESE 16.1 km/h 17.7 km/h 93 % 0 mm
20:17 22.1 °C 20.9 °C 1011.4 hPa SE 8 km/h 20.9 km/h 93 % 0 mm
20:22 22 °C 21 °C 1011.4 hPa ESE 14.5 km/h 20.9 km/h 94 % 0 mm
20:27 21.9 °C 20.9 °C 1011.4 hPa SE 6.4 km/h 20.9 km/h 94 % 0 mm
20:32 21.8 °C 20.8 °C 1011.7 hPa ESE 6.4 km/h 20.9 km/h 94 % 0 mm
20:37 21.8 °C 21 °C 1011.4 hPa ESE 11.3 km/h 20.9 km/h 95 % 0 mm
20:42 21.8 °C 21 °C 1011.4 hPa SE 9.7 km/h 20.9 km/h 95 % 0 mm
20:44 21.7 °C 20.9 °C 1011.4 hPa East 11.3 km/h 20.9 km/h 95 % 0 mm
20:49 21.7 °C 20.9 °C 1011.4 hPa South 12.9 km/h 20.9 km/h 95 % 0 mm
20:54 21.7 °C 20.9 °C 1011.7 hPa SE 11.3 km/h 17.7 km/h 95 % 0 mm
20:59 21.6 °C 20.8 °C 1011.7 hPa ESE 6.4 km/h 24.1 km/h 95 % 0 mm
21:04 21.6 °C 20.8 °C 1011.7 hPa SE 4.8 km/h 24.1 km/h 95 % 0 mm
21:09 21.6 °C 20.8 °C 1011.4 hPa South 3.2 km/h 24.1 km/h 95 % 0 mm
21:14 21.6 °C 20.8 °C 1011.4 hPa East 8 km/h 17.7 km/h 95 % 0 mm
21:19 21.6 °C 20.8 °C 1011.4 hPa SSE 3.2 km/h 17.7 km/h 95 % 0 mm
21:24 21.6 °C 20.9 °C 1011.4 hPa ESE 9.7 km/h 16.1 km/h 96 % 0 mm
21:29 21.6 °C 20.9 °C 1011.4 hPa SE 4.8 km/h 16.1 km/h 96 % 0 mm
21:34 21.5 °C 20.8 °C 1011.1 hPa SE 4.8 km/h 14.5 km/h 96 % 0 mm
21:39 21.5 °C 20.8 °C 1011.1 hPa East 3.2 km/h 17.7 km/h 96 % 0 mm
21:44 21.4 °C 20.7 °C 1011.1 hPa ESE 4.8 km/h 17.7 km/h 96 % 0 mm
21:49 21.4 °C 20.7 °C 1011.1 hPa ESE 11.3 km/h 17.7 km/h 96 % 0 mm
21:54 21.4 °C 20.9 °C 1011.1 hPa SE 3.2 km/h 14.5 km/h 97 % 0 mm
21:59 21.3 °C 20.8 °C 1011.4 hPa ESE 4.8 km/h 14.5 km/h 97 % 0 mm
22:04 21.3 °C 20.8 °C 1011.4 hPa SSW 4.8 km/h 14.5 km/h 97 % 0 mm
22:09 21.3 °C 20.8 °C 1011.4 hPa ESE 4.8 km/h 14.5 km/h 97 % 0 mm
22:14 21.3 °C 20.8 °C 1011.4 hPa ESE 9.7 km/h 14.5 km/h 97 % 0 mm
22:19 21.3 °C 20.8 °C 1011.7 hPa SE 3.2 km/h 14.5 km/h 97 % 0 mm
22:25 21.3 °C 20.8 °C 1011.7 hPa ESE 8 km/h 14.5 km/h 97 % 0 mm
22:30 21.3 °C 20.8 °C 1011.7 hPa SSE 8 km/h 14.5 km/h 97 % 0 mm
22:31 21.3 °C 20.8 °C 1011.7 hPa ESE 4.8 km/h 16.1 km/h 97 % 0 mm
22:36 21.3 °C 21 °C 1011.7 hPa East 3.2 km/h 19.3 km/h 98 % 0 mm
22:41 21.3 °C 21 °C 1012.1 hPa ESE 12.9 km/h 19.3 km/h 98 % 0 mm
22:46 21.3 °C 21 °C 1011.7 hPa SE 3.2 km/h 19.3 km/h 98 % 0 mm
22:51 21.3 °C 21 °C 1012.1 hPa ESE 9.7 km/h 19.3 km/h 98 % 0 mm
22:56 21.3 °C 21 °C 1011.7 hPa ESE 9.7 km/h 19.3 km/h 98 % 0 mm
23:01 21.3 °C 21 °C 1011.7 hPa SSE 12.9 km/h 17.7 km/h 98 % 0 mm
23:06 21.3 °C 21 °C 1012.1 hPa SE 4.8 km/h 17.7 km/h 98 % 0 mm
23:11 21.3 °C 21 °C 1012.1 hPa SE 8 km/h 17.7 km/h 98 % 0 mm
23:16 21.3 °C 21 °C 1012.1 hPa ESE 8 km/h 17.7 km/h 98 % 0 mm
23:21 21.3 °C 21 °C 1012.1 hPa ESE 6.4 km/h 17.7 km/h 98 % 0 mm
23:26 21.3 °C 21 °C 1012.1 hPa ESE 3.2 km/h 11.3 km/h 98 % 0 mm
23:31 21.3 °C 21 °C 1012.1 hPa SE 6.4 km/h 11.3 km/h 98 % 0 mm
23:36 21.3 °C 21 °C 1012.1 hPa SSE 3.2 km/h 12.9 km/h 98 % 0 mm
23:41 21.3 °C 21 °C 1012.1 hPa ESE 6.4 km/h 12.9 km/h 98 % 0 mm
23:46 21.3 °C 21 °C 1012.1 hPa SE 8 km/h 12.9 km/h 98 % 0 mm
23:52 21.3 °C 21 °C 1012.1 hPa SSE 6.4 km/h 14.5 km/h 98 % 0 mm
23:57 21.3 °C 21 °C 1012.1 hPa Calm   14.5 km/h 98 % 0 mm
Spring, Texas: Villages of Bridgestone
Compliments of Weather Underground - 3.25 mb

Script developed by  Jim McMurry - jmcmurry@mwt.net Adapted for the template by  Wim van der Kuil - Leuven-Template.eu

You find our weather info also at:

UK Metoffice

WeatherCloud

Weather Underground

Mid-South Weather Network

AWEKAS

Citizen Weather Observer Program (CWOP)

HAMweather, WeatherForYou, PWS Weather

Equipment we use:

Weather-station
Davis Vantage Vue

Weather-program
Meteohub

Weather-server
Debian 7.9 x86 (Guest)

Provider
DreamHost

Davis Vantage Vue

Meteohub

Debian 7.9 x86 (Guest)

DreamHost